Location: Unspecified
(0.0000°N, 0.0000°E)
Time: 06:34:46
(UTC+00:00)

deb Explorer IX - Pass Details

Date: 27 November 2019
Orbit: 546 x 1104 km, 38.8° (Epoch: 11 December)

Event Time Altitude Azimuth Distance (km) Brightness Sun altitude
Rises 15:36:45 0° 189° (S) 3,284 ? 30.3°
Reaches altitude 10° 15:41:55 10° 149° (SSE) 2,533 ? 29.1°
Maximum altitude 15:42:54 10° 139° (SE) 2,537 ? 28.9°
Drops below altitude 10° 15:43:55 10° 130° (SE) 2,597 ? 28.6°
Sets 15:49:39 0° 92° (E) 3,709 ? 27.3°
